{"data":{"norad_id":57402,"intl_designator":"2023-101D","name":"TIANMU-1 10","alt_names":[],"object_type":"PAYLOAD","status":"ACTIVE","operator":null,"country":"PRC","launch_date":"2023-07-20","launch_site_code":"JSC","launch_vehicle":null,"mission":null,"orbit_class":"UNKNOWN","rcs_meters":null,"size_class":null,"mass_kg":null,"dimensions":null,"purposes":["earth_obs"],"wikipedia_slug":null,"has_3d_model":false,"image_url":null,"decayed_at":null,"tle_current":{"epoch":"2026-09-19T23:04:24.695616Z","epoch_age_seconds":61019,"freshness":"FRESH","line1":"1 57402U 23101D   26262.96139694  .00004011  00000+0  13733-3 0  9995","line2":"2 57402  97.2531 311.7404 0005552 141.8684 218.2951 15.30778195176138","mean_motion":15.30778195,"eccentricity":0.0005552,"inclination_deg":97.2531,"raan_deg":311.7404,"arg_perigee_deg":141.8684,"mean_anomaly_deg":218.2951,"bstar":0.00013733,"rev_number":17613,"period_min":94.069800883204,"perigee_km":469.68520391024,"apogee_km":477.29324967247,"semimajor_km":6851.6262267914,"source":"CELESTRAK","updated_at":"2026-09-20T09:00:33.253642Z"}}}